sat.trackr.live / text

‹ back to catalog

STARLINK-3585

NORAD 51875 · 2022-022Z

PAYLOAD ACTIVE UNKNOWN

§ Identity

Operator
Country
US
Launch date
2022-03-03
Launch site
AFETR
Launch vehicle
Mass (kg)
RCS (m²)

Purposes: comms

External: N2YO · Heavens-Above · Gunter

§ Orbital elements

Epoch: 2026-09-19T07:33:10.101600Z

Period
93.79 min
Inclination
53.1603°
Eccentricity
0.0001231
Mean motion
15.35398017 rev/d
Perigee alt
458.9 km
Apogee alt
460.6 km
Semi-major
6,837.9 km
B*
1.0203e-5
RAAN
209.0648°
Arg perigee
96.4643°
Mean anomaly
263.6501°
Rev number
25,249

§ Raw data

STARLINK-35851 51875U 22022Z   26262.31470025 -.00000025  00000+0  10203-4 0  99912 51875  53.1603 209.0648 0001231  96.4643 263.6501 15.35398017252491

JSON: /api/v1/satellites/51875 · /tle

For live sub-satellite position, see the globe view (requires WebGL).

§ Visibility from observer

Set your observer location to see the next 7 days of passes ≥ 10°. The values pass through the URL so the page stays shareable.

No JS? Fill the form by hand. The geolocation button needs JavaScript.